Find Starlink 11197

NORAD ID: 60186 Int'l Des: 2024-124 Owner: SPXS Country: US Constellation: starlink operational
LEOCIRCULAR

实时位置

正在加载3D地球...

关于 Starlink 11197

正在加载描述...

即将过境

Passes for default location (London). Set your location on the main map for personalized predictions.

高度历史

Loading altitude history...

两行轨道根数

1 60186U 24124D 26127.30457279 -.00001517 00000-0 -76769-5 0 9995
2 60186 53.1587 232.0519 0000781 101.0605 259.0500 15.69698528105740
Epoch: May 7, 2026 • Age: 10 hours

当前状态

高度 362.4 km
速度 7.70 km/s
星下点 37.79°N, 106.24°W
发射日期 Jul 3, 2024
运行时间 1.8 years
类型 internet

技术详情

分类 Payload
质量 960.00 kg
干质量 910.00 kg
总质量 960.00 kg
长度 0.30 m
直径 4.10 m
跨度 29.00 m
形状 Box + pan
制造商 SPXS
平台类型 Starlink V2MD
阶段状态 In Orbit
所有者/国家 SPXS/US

Most Searched